Shelbyville, IN

6:39 PM EDT on August 27, 2016 (GMT -0400)
Shelbyville Municipal

Weather History for KGEZ - June, 2013

Change the Weather History Date:

Monday, June 10, 2013

  Actual Average Record
Temperature  
Mean Temperature 74 °F 70 °F  
Max Temperature 80 °F 81 °F 92 °F (2011)
Min Temperature 67 °F 60 °F 52 °F (2007)
Degree Days  
Heating Degree Days 0 1  
Month to date heating degree days 5 10  
Since 1 June heating degree days 5 10  
Since 1 July heating degree days 5076 5405  
Cooling Degree Days 9 6  
Month to date cooling degree days 47 53  
Year to date cooling degree days 215 134  
Since 1 June cooling degree days 47 53  
Growing Degree Days 24 (Base 50)    
Moisture  
Dew Point 63 °F    
Average Humidity 68    
Maximum Humidity 87    
Minimum Humidity 48    
Precipitation  
Precipitation T in 0.15 in 0.86 in (2004)
Month to date precipitation 0.80 1.64  
Year to date precipitation 13.11 19.42  
Sea Level Pressure  
Sea Level Pressure 29.80 in    
Wind  
Wind Speed 10 mph (SSW)    
Max Wind Speed 21 mph    
Max Gust Speed 26 mph    
Visibility 9 miles    
Events Rain    
T = Trace of Precipitation, MM = Missing Value Source: NWS Daily Summary

Daily Weather History Graph

Daily Weather History Graph

Search for Another Location

Airport or City:

Trip Planner

Search our weather history database for the weather conditions in past years. The results will help you decide how hot, cold, wet, or windy it might be!

Date:

Astronomy

Jun. 10, 2013 Rise Set
Actual Time 6:15 AM EDT 9:10 PM EDT
Civil Twilight 5:42 AM EDT 9:42 PM EDT
Nautical Twilight 5:02 AM EDT 10:23 PM EDT
Astronomical Twilight 4:14 AM EDT 11:10 PM EDT
Moon 8:03 AM EDT (6/10) 10:37 PM EDT (6/10)
Length of Visible Light 15h 59m
Length of Day
14h 55m
Waxing Crescent, 4% of the Moon is Illuminated
Jun 10
Waxing Crescent
Jun 16
First Quarter
Jun 23
Full
Jun 30
Last Quarter
Jul 8
New

Hourly Weather History & Observations

Time (EDT) Temp. Dew Point Humidity Pressure Visibility Wind Dir Wind Speed Gust Speed Precip Events Conditions
12:53 AM 71.1 °F 64.9 °F 81% 29.82 in 10.0 mi SSE 13.8 mph - 0.00 in   Scattered Clouds
1:53 AM 71.1 °F 64.9 °F 81% 29.81 in 10.0 mi SSE 13.8 mph 25.3 mph 0.00 in Rain Light Rain
2:38 AM 69.8 °F 64.4 °F 83% 29.81 in 10.0 mi South 9.2 mph 18.4 mph 0.00 in Rain Light Rain
2:53 AM 70.0 °F 64.9 °F 84% 29.79 in 10.0 mi South 11.5 mph - 0.00 in Rain Light Rain
3:19 AM 69.8 °F 64.4 °F 83% 29.80 in 10.0 mi South 9.2 mph 19.6 mph 0.00 in   Overcast
3:29 AM 69.8 °F 64.4 °F 83% 29.80 in 10.0 mi South 11.5 mph - 0.00 in Rain Light Rain
3:36 AM 69.8 °F 64.4 °F 83% 29.80 in 10.0 mi South 11.5 mph - 0.00 in Rain Light Rain
3:53 AM 69.1 °F 64.9 °F 87% 29.78 in 10.0 mi South 11.5 mph - 0.00 in Rain Light Rain
4:07 AM 69.8 °F 64.4 °F 83% 29.80 in 10.0 mi South 11.5 mph - 0.00 in Rain Light Rain
4:39 AM 68.0 °F 64.4 °F 88% 29.79 in 8.0 mi South 6.9 mph - 0.00 in Rain Light Rain
4:50 AM 68.0 °F 64.4 °F 88% 29.79 in 10.0 mi South 9.2 mph - 0.00 in Rain Light Rain
4:53 AM 68.0 °F 64.9 °F 90% 29.78 in 10.0 mi South 8.1 mph - 0.00 in Rain Light Rain
5:09 AM 68.0 °F 64.4 °F 88% 29.79 in 10.0 mi South 9.2 mph - 0.00 in   Overcast
5:53 AM 68.0 °F 64.9 °F 90% 29.78 in 10.0 mi South 8.1 mph - 0.00 in Rain Light Rain
6:21 AM 68.0 °F 64.4 °F 88% 29.80 in 10.0 mi South 8.1 mph - 0.00 in   Overcast
6:35 AM 68.0 °F 64.4 °F 88% 29.79 in 10.0 mi SW 6.9 mph - 0.00 in   Overcast
6:53 AM 68.0 °F 64.0 °F 87% 29.78 in 9.0 mi South 8.1 mph - 0.00 in   Overcast
7:27 AM 68.0 °F 64.4 °F 88% 29.81 in 8.0 mi South 9.2 mph - N/A   Overcast
7:53 AM 68.0 °F 64.0 °F 87% 29.80 in 6.0 mi SSW 9.2 mph - N/A   Overcast
7:56 AM 68.0 °F 64.4 °F 88% 29.81 in 6.0 mi SSW 9.2 mph - N/A   Overcast
8:28 AM 69.8 °F 64.4 °F 83% 29.82 in 6.0 mi SSW 10.4 mph - N/A   Overcast
8:35 AM 69.8 °F 64.4 °F 83% 29.82 in 7.0 mi SW 12.7 mph - N/A   Overcast
8:53 AM 69.1 °F 64.0 °F 84% 29.81 in 8.0 mi SW 12.7 mph - N/A   Overcast
9:08 AM 69.8 °F 64.4 °F 83% 29.83 in 8.0 mi SW 10.4 mph - N/A   Mostly Cloudy
9:20 AM 69.8 °F 64.4 °F 83% 29.83 in 10.0 mi SW 13.8 mph - N/A   Scattered Clouds
9:53 AM 72.0 °F 63.0 °F 73% 29.81 in 10.0 mi WSW 9.2 mph - N/A   Scattered Clouds
10:28 AM 73.4 °F 62.6 °F 69% 29.82 in 10.0 mi SW 12.7 mph - N/A   Mostly Cloudy
10:35 AM 73.4 °F 62.6 °F 69% 29.82 in 10.0 mi WSW 13.8 mph - N/A   Scattered Clouds
10:53 AM 73.9 °F 62.1 °F 66% 29.80 in 10.0 mi SW 12.7 mph - N/A   Partly Cloudy
11:53 AM 75.9 °F 62.1 °F 62% 29.80 in 10.0 mi SW 12.7 mph - N/A   Mostly Cloudy
12:53 PM 75.9 °F 62.1 °F 62% 29.80 in 10.0 mi West 8.1 mph - N/A   Overcast
1:53 PM 77.0 °F 63.0 °F 62% 29.78 in 10.0 mi West 5.8 mph - 0.00 in   Partly Cloudy
2:53 PM 78.1 °F 62.1 °F 58% 29.77 in 10.0 mi SW 11.5 mph - 0.00 in   Mostly Cloudy
3:53 PM 79.0 °F 57.9 °F 48% 29.77 in 10.0 mi West 16.1 mph 23.0 mph N/A   Scattered Clouds
4:53 PM 77.0 °F 57.9 °F 52% 29.77 in 10.0 mi West 13.8 mph - N/A   Mostly Cloudy
5:53 PM 73.9 °F 61.0 °F 64% 29.79 in 10.0 mi West 9.2 mph - N/A   Overcast
6:53 PM 75.9 °F 61.0 °F 60% 29.79 in 10.0 mi WSW 10.4 mph - N/A   Overcast
7:53 PM 75.0 °F 61.0 °F 62% 29.80 in 10.0 mi West 10.4 mph - N/A   Partly Cloudy
8:53 PM 72.0 °F 62.1 °F 71% 29.81 in 10.0 mi WSW 10.4 mph - N/A   Clear
9:53 PM 70.0 °F 62.1 °F 76% 29.82 in 10.0 mi WSW 4.6 mph - N/A   Scattered Clouds
10:53 PM 69.1 °F 63.0 °F 81% 29.84 in 10.0 mi SSW 4.6 mph - N/A   Overcast
11:53 PM 68.0 °F 63.0 °F 84% 29.85 in 10.0 mi SSW 4.6 mph - N/A   Clear